This is the latest recevied weather packets stored in our database for station/object AB4KN. If no packets are shown the sender has not sent any weather packets the latest 10 day(s).
| Time | Temp. | Humidity | Pressure | Rain* | Wind** | Luminosity | Snow |
|---|---|---|---|---|---|---|---|
| 1777300201 | 17.78° C | 74% | 1026.7 hPa | 0 mm | - | 54 W/m² | - |
| 1777299898 | 17.78° C | 73% | 1026.8 hPa | 0 mm | - | 73 W/m² | - |
| 1777299595 | 17.78° C | 73% | 1026.7 hPa | 0 mm | - | 85 W/m² | - |
| 1777299293 | 17.78° C | 73% | 1026.6 hPa | 0 mm | - | 75 W/m² | - |
| 1777298990 | 17.78° C | 74% | 1026.3 hPa | 0 mm | - | 96 W/m² | - |
| 1777298688 | 17.22° C | 75% | 1026.2 hPa | 0 mm | - | 85 W/m² | - |
| 1777298383 | 17.22° C | 75% | 1026.2 hPa | 0 mm | - | 82 W/m² | - |
| 1777298080 | 17.22° C | 74% | 1026.1 hPa | 0 mm | - | 75 W/m² | - |
| 1777297779 | 17.22° C | 74% | 1026.1 hPa | 0 mm | - | 74 W/m² | - |
| 1777297478 | 17.22° C | 75% | 1025.9 hPa | 0 mm | - | 72 W/m² | - |
| 1777297174 | 17.22° C | 75% | 1025.9 hPa | 0 mm | - | 61 W/m² | - |
| 1777296872 | 17.22° C | 74% | 1025.8 hPa | 0 mm | - | 56 W/m² | - |
| 1777296567 | 17.22° C | 75% | 1026 hPa | 0 mm | - | 50 W/m² | - |
| 1777296233 | 17.22° C | 75% | 1025.9 hPa | 0 mm | - | 66 W/m² | - |
| 1777295929 | 16.67° C | 75% | 1025.3 hPa | 0 mm | - | 46 W/m² | - |
| 1777295627 | 16.67° C | 75% | 1025.5 hPa | 0 mm | - | 36 W/m² | - |
| 1777295324 | 16.67° C | 75% | 1025.5 hPa | 0 mm | - | 40 W/m² | - |
| 1777295022 | 16.67° C | 75% | 1025.6 hPa | 0 mm | - | 39 W/m² | - |
| 1777294718 | 16.67° C | 76% | 1025.5 hPa | 0 mm | - | 43 W/m² | - |
| 1777294413 | 16.67° C | 77% | 1025.5 hPa | 0 mm | - | 33 W/m² | - |
| 1777294110 | 16.67° C | 77% | 1025.3 hPa | 0 mm | - | 28 W/m² | - |
| 1777293808 | 16.67° C | 76% | 1025.4 hPa | 0 mm | - | 22 W/m² | - |
| 1777293508 | 16.67° C | 77% | 1025.3 hPa | 0 mm | - | 26 W/m² | - |
| 1777293204 | 16.67° C | 76% | 1025.2 hPa | 0 mm | - | 29 W/m² | - |
| 1777292903 | 16.67° C | 77% | 1025.1 hPa | 0 mm | - | 31 W/m² | - |
* Rain latest hour (hover to see other rain measurements)
** Current wind speed in m/s (hover to see current wind gust speed)